SNAKE--AMERICAN FALLS RESERVOIR (AFRI1)

Observed    Forecast/Trend Issued: 2026-09-06 08:22 PDT
Date/Time (PDT)Inflow    Date/Time (PDT)Inflow
2026-09-03 17:005151    2026-09-06 17:005099.95
2026-09-03 11:005307    2026-09-06 23:005142.93
2026-09-03 05:005539    2026-09-07 05:005157.42
2026-09-02 23:005824    2026-09-07 11:005191.99
2026-09-02 17:006130    2026-09-07 17:005181.78
2026-09-02 11:006394    2026-09-07 23:005167.28
2026-09-02 05:006564    2026-09-08 05:005162.78
2026-09-01 23:006664    2026-09-08 11:005162.93
2026-09-01 17:006730    2026-09-08 17:005173.78
2026-09-01 11:006770    2026-09-08 23:005187.93
2026-09-01 05:006784    2026-09-09 05:005212.15
2026-08-31 23:006771    2026-09-09 11:005235.47
2026-08-31 17:006732    2026-09-09 17:005266.88
2026-08-31 11:006678    2026-09-09 23:005290.93
2026-08-31 05:006616    2026-09-10 05:005313.29
2026-08-30 23:006544    2026-09-10 11:005324.99
2026-08-30 17:006454    2026-09-10 17:005331.72
2026-08-30 11:006340    2026-09-10 23:005323.32
2026-08-30 05:006213    2026-09-11 05:005311.04
2026-08-29 23:006099    2026-09-11 11:005303.46
2026-08-29 17:005999    2026-09-11 17:005282
2026-08-29 11:005893    2026-09-11 23:005251.47
2026-08-29 05:005811    2026-09-12 05:005223.79
2026-08-28 23:005806    2026-09-12 11:005220.59
2026-08-28 17:005859    2026-09-12 17:005195.46
2026-08-28 11:005901    2026-09-12 23:005165.41
2026-08-28 05:005922    2026-09-13 05:005141.15
2026-08-27 23:005977    2026-09-13 11:005133.34
2026-08-27 17:006072    2026-09-13 17:005114.63
2026-08-27 11:006153    2026-09-13 23:005092.91
2026-08-27 05:006201    2026-09-14 05:005077.91
2026-08-26 23:006249    2026-09-14 11:005065.53
2026-08-26 17:006308    2026-09-14 17:005054.09
      2026-09-14 23:005041.11
      2026-09-15 05:005036.09
      2026-09-15 11:005033.81
      2026-09-15 17:005032.61
      2026-09-15 23:005024.92
      2026-09-16 05:005020.06